EW8749 Weather Reports


time (UTC)temp
C
wind
direction
speed
KPH
gust
KPH
rain 1hr
cm
rain 24hr
cm
rain mn
cm
humidity
%
barometer
mb
20260506061523 14 251 4.8 16.1 0.00 0.03 0.03 63 1018.8
20260506044515 14 256 8.0 20.9 0.00 0.03 0.03 62 1019.3
20260506043012 14 326 6.4 19.3 0.00 0.03 0.03 62 1019.4
20260506041522 15 256 6.4 20.9 0.00 0.03 0.03 59 1019.5
20260506040008 14 292 4.8 17.7 0.00 0.03 0.03 60 1019.7
20260506034508 14 266 6.4 17.7 0.00 0.03 0.03 63 1020.0
20260506033005 14 318 8.0 20.9 0.00 0.03 0.03 63 1020.1
20260506031607 15 249 3.2 17.7 0.00 0.03 0.03 64 1020.4
20260506030058 15 290 6.4 19.3 0.00 0.03 0.03 66 1020.5
20260506024556 14 263 8.0 16.1 0.00 0.03 0.03 64 1020.9
20260506023053 14 214 3.2 14.5 0.00 0.03 0.03 67 1021.0
20260506021554 14 253 3.2 17.7 0.00 0.03 0.03 67 1021.4
20260506020046 14 291 1.6 12.9 0.00 0.03 0.03 69 1021.8
20260506014550 13 245 0.0 11.3 0.00 0.03 0.03 70 1022.0
20260506013040 13 309 3.2 11.3 0.00 0.03 0.03 71 1022.5
20260506011540 13 242 0.0 6.4 0.00 0.03 0.03 73 1022.6
20260506010032 12 308 0.0 8.0 0.00 0.03 0.03 75 1022.8
20260506004537 12 288 1.6 8.0 0.00 0.03 0.03 78 1023.0
20260506003024 10 104 0.0 0.0 0.00 0.00 0.03 85 1023.2
20260506001519 10 105 0.0 3.2 0.00 0.03 0.03 90 1023.4
20260506000019 8 106 0.0 4.8 0.00 0.03 0.03 92 1023.5
20260505234516 8 83 0.0 0.0 0.00 0.03 0.03 91 1023.7
20260505233007 7 83 0.0 1.6 0.00 0.03 0.03 91 1023.7
20260505231505 6 329 0.0 3.2 0.00 0.03 0.03 91 1023.8
20260505224558 5 301 0.0 0.0 0.00 0.03 0.03 91 1024.0
20260505223058 5 301 0.0 0.0 0.00 0.03 0.03 91 1024.0
20260505221554 5 301 0.0 0.0 0.03 0.03 0.03 91 1023.9
20260505220051 4 301 0.0 0.0 0.03 0.03 0.03 91 1023.8